Location: Hope
(40.9110°N, 74.9680°W)
Time: 10:00:00
(UTC-04:00)

Tiangong 2 - Visible Passes

Search period start: 22 May 2018 00:00
Search period end: 01 June 2018 00:00
Orbit: 382 x 385 km, 42.8° (Epoch: 22 May)

Date Brightness Start Highest point End Pass type
(mag) Time Alt. Az. Time Alt. Az. Time Alt. Az.
22 May 0.9 22:06:59 10° WSW 22:10:08 80° SSE 22:10:49 50° E visible
23 May 1.2 21:07:19 10° SW 21:10:23 51° SSE 21:13:26 10° E visible
23 May 1.8 22:43:58 10° W 22:46:40 53° NW 22:46:40 53° NW visible
24 May 1.2 21:44:07 10° W 21:47:16 75° N 21:49:55 14° ENE visible
24 May 3.5 23:21:00 10° WNW 23:22:07 20° WNW 23:22:07 20° WNW visible
25 May 1.6 22:21:09 10° W 22:24:16 58° N 22:25:09 39° ENE visible
26 May 1.5 21:21:16 10° W 21:24:24 62° N 21:27:31 10° ENE visible
26 May 2.3 22:58:07 10° WNW 23:00:15 39° WNW 23:00:15 39° WNW visible
27 May 1.4 21:58:16 10° WNW 22:01:24 62° N 22:03:03 25° E visible
27 May 4.1 23:35:04 10° W 23:35:15 11° W 23:35:15 11° W visible
28 May 1.6 20:58:24 10° W 21:01:31 58° N 21:04:38 10° E visible
28 May 1.2 22:35:11 10° WNW 22:38:00 67° W 22:38:00 67° W visible
29 May 1.1 21:35:21 10° WNW 21:38:30 75° NNE 21:40:45 17° E visible
29 May 3.7 23:12:15 10° W 23:12:56 15° W 23:12:56 15° W visible
30 May 1.3 22:12:16 10° W 22:15:21 51° SSW 22:15:39 48° S visible
31 May 1.0 21:12:22 10° WNW 21:15:32 80° SSW 21:18:22 12° ESE visible
31 May 3.5 22:49:40 10° W 22:50:33 14° WSW 22:50:33 14° WSW visible
